Location: Syracuse
(43.0480°N, 76.1480°W)
Time: 12:55:09
(UTC-04:00)

Daily predictions for brighter satellites

Satellite Brightness Start Highest point End
(mag) Time Altitude Azimuth Time Altitude Azimuth Time Altitude Azimuth
Cosmos 1782 2.9 20:50:08 10° N 20:54:12 90° E 20:58:14 10° S
Cosmos 2341 Rocket 4.5 20:51:46 10° SSE 20:57:36 42° E 21:03:25 10° NNE
Cosmos 1833 Rocket 4.1 20:53:34 10° N 20:58:06 24° NE 21:02:34 10° ESE
Envisat 3.5 20:56:21 10° SE 21:01:08 43° ENE 21:05:55 10° N
Meteor 2-6 Rocket 4.5 20:56:28 10° NNW 21:02:25 84° W 21:08:13 10° S
Cosmos 1844 Rocket 3.1 20:56:51 10° SSW 21:02:29 71° WNW 21:08:08 10° NNE
deb Chang Zheng 4 4.3 21:00:01 10° NNE 21:04:03 34° E 21:08:05 10° SSE
Cosmos 1825 2.6 21:00:31 10° SSE 21:04:06 42° E 21:07:44 10° NNE
FENGYUN 3A 4.4 20:59:00 10° S 21:04:17 57° W 21:09:36 10° NNW
Cosmos 2278 Rocket 2.2 21:01:41 10° S 21:07:16 64° ESE 21:12:54 10° NNE
ERS-1 Rocket 3.0 21:05:09 10° SSE 21:10:10 76° ENE 21:15:13 10° N
Timation 2 Rocket 4.1 21:07:12 10° NNW 21:13:08 59° ENE 21:19:03 10° SE
Cosmos 1420 Rocket 4.3 21:08:20 10° S 21:13:20 47° ESE 21:18:19 10° NNE
Cosmos 1844 4.0 21:08:18 10° SSW 21:14:03 78° WNW 21:19:54 10° NNE
H-2A R/B 2.4 21:10:17 10° SE 21:14:24 49° ENE 21:18:27 10° N
ISS -2.7 21:11:22 10° WSW 21:14:35 61° NNW 21:17:49 10° NE
Cosmos 1140 Rocket 3.6 21:10:13 10° NNW 21:15:21 63° ENE 21:20:27 10° SSE
Okean 3 3.6 21:13:13 10° N 21:17:28 59° E 21:21:38 10° SSE
Cosmos 407 Rocket 4.5 21:12:36 10° NNW 21:17:41 48° WSW 21:22:47 10° S
APEX 3.9 21:14:32 10° S 21:18:20 44° ESE 21:23:16 10° NE
Cosmos 2154 Rocket 4.0 21:13:11 10° S 21:19:22 79° E 21:25:35 10° N
Cosmos 1939 Rocket 2.8 21:15:45 10° SSE 21:19:37 69° ENE 21:23:34 10° N
Cosmos 489 Rocket 4.5 21:15:09 10° NNW 21:21:23 75° ENE 21:27:35 10° SSE
Cosmos 1238 Rocket 2.6 21:18:33 10° N 21:21:58 70° E 21:26:02 10° SSE
COSMOS 2487 2.6 21:18:23 10° NNW 21:22:01 77° WSW 21:25:36 10° SSE
BREEZE-M TANK 4.5 20:57:20 10° WSW 21:22:20 80° NNW 21:27:00 10° ENE
Abrixas 3.6 21:20:48 10° SSW 21:23:22 25° SE 21:25:57 10° E
Cosmos 2082 Rocket 2.7 21:20:49 10° NNW 21:26:18 46° ENE 21:30:58 14° SE
SPOT 5 3.3 21:23:34 10° SSE 21:28:45 56° ENE 21:33:59 10° N
Cosmos 1452 Rocket 4.1 21:29:24 10° SSW 21:34:36 61° WNW 21:39:52 10° NNE
Lacrosse 5 3.2 21:35:03 10° SSE 21:38:26 18° ESE 21:41:49 10° ENE
Cosmos 1184 Rocket 3.0 21:35:41 10° SSW 21:39:00 75° W 21:42:23 10° N
Intercosmos 25 3.2 21:38:00 11° S 21:41:05 46° E 21:44:10 10° NNE
H-2A R/B 3.6 21:40:11 13° ESE 21:43:20 22° ENE 21:47:15 10° NNE
Cosmos 2297 3.7 21:40:18 10° SSW 21:45:57 67° ESE 21:51:39 10° NNE
MetOp-B 4.2 21:43:39 14° SSE 21:48:11 69° ENE 21:53:31 10° N
Meteor 1-14 Rocket 4.3 21:44:42 10° S 21:50:14 58° E 21:55:41 10° NNE
Meteor 2-13 Rocket 4.4 21:46:27 10° S 21:52:35 84° E 21:58:47 10° N
Okean 2 Rocket 3.1 21:49:15 10° S 21:53:39 80° W 21:58:05 10° N
BREEZE-M DEB (TANK) 3.6 21:54:54 10° WNW 21:56:39 22° N 21:58:57 10° NE
Cosmos 1782 Rocket 4.2 21:54:09 10° SSW 21:58:32 58° W 22:02:59 10° N
SPOT 1/Viking Rocket 3.7 21:55:17 20° SE 21:58:48 59° ENE 22:03:56 10° N
Cosmos 1242 Rocket 3.2 21:58:16 10° NNW 22:01:53 55° W 22:04:46 15° S
USA 229 DEB 3.8 21:54:52 10° NW 22:02:01 83° NE 22:07:00 22° SE
USA 229 3.8 21:54:58 10° NW 22:02:07 82° NE 22:07:06 22° SE
NOSS 8 (E) 4.5 21:59:36 10° SSW 22:02:58 55° ESE 22:06:36 10° NE
Cosmos 1850 Rocket 4.4 22:00:00 10° NNW 22:05:17 65° WSW 22:09:24 17° S
Cosmos 1975 Rocket 4.2 22:07:56 10° NNW 22:12:00 40° W 22:16:04 10° SSW
ARGOS 3.2 22:09:05 24° SSE 22:12:21 69° ENE 22:17:42 10° N
YAOGAN 6 2.6 22:10:46 27° S 22:12:34 72° WSW 22:16:07 10° NNW
Cosmos 2369 Rocket 3.9 22:14:07 15° E 22:14:07 15° E 22:16:34 10° ENE
GPS 2-05 Rocket1 4.5 22:10:59 10° WSW 22:13:49 22° SSW 22:13:49 22° SSW
OAO 3 Rocket 4.0 22:10:12 10° SW 22:14:34 31° S 22:15:30 29° SSE
Lacrosse 5 rocket 1.5 22:10:57 10° SSW 22:14:39 40° SE 22:18:12 10° ENE
Cosmos 2218 Rocket 4.0 22:08:24 10° S 22:14:48 82° E 22:21:13 10° N
BREEZE-M DEB (TANK) 4.5 22:13:21 10° WNW 22:16:24 43° N 22:24:47 10° ENE
PSLV R/B 4.0 22:16:18 27° SSW 22:17:32 44° W 22:20:23 10° NNW
SL-08 RB Rocket 3.8 22:15:38 30° SE 22:17:48 63° ENE 22:22:25 10° N
CZ-4 R/B 4.0 22:13:37 10° NNE 22:18:09 50° E 22:20:06 30° SSE
Meteor 2-8 Rocket 4.4 22:12:51 10° N 22:19:02 71° E 22:22:43 25° SSE
Cosmos 1959 Rocket 4.4 22:16:56 10° S 22:23:03 86° W 22:29:12 10° N
CZ-4 SHROUD 4.3 22:23:31 25° SSW 22:24:46 38° W 22:27:43 10° NNW
Cosmos 1536 Rocket 3.5 22:20:33 10° N 22:25:04 85° E 22:27:02 33° S
AVUM R/B 3.4 22:21:47 10° NNW 22:25:18 73° WSW 22:26:05 49° S
Gbstr 26 Del rocket 3.4 22:20:15 10° NW 22:25:29 64° NNE 22:27:30 31° E
Cosmos 1727 Rocket 3.9 22:20:35 10° N 22:26:48 81° E 22:30:27 26° SSE
Cosmos 1331 Rocket 3.9 22:27:09 25° S 22:30:03 61° ESE 22:35:09 10° NNE
Landsat 7 4.0 22:28:19 36° SE 22:30:04 59° ENE 22:34:47 10° N
NOSS 8 (H) 4.4 22:30:35 22° SSW 22:32:42 83° SE 22:36:32 10° NE
IGS 5A 4.2 22:32:35 34° E 22:33:21 37° ENE 22:37:12 10° N
DELTA 2 DEB (DPAF) 4.2 22:34:27 42° SE 22:35:46 64° ENE 22:40:12 10° N
CZ-4C R/B 3.5 22:36:09 49° SE 22:37:00 62° ENE 22:41:10 10° N
Cosmos 1110 Rocket 3.9 22:35:43 18° SSW 22:39:39 85° ESE 22:44:53 10° NNE
ATLAS 2AS CENTAUR R/B 4.4 22:33:28 10° NNW 22:40:27 30° NNE 22:46:59 11° E
Cosmos 1833 Rocket 3.1 22:36:53 10° NNW 22:42:24 58° WSW 22:45:06 29° S
Meteor 1-20 Rocket 4.1 22:39:25 26° S 22:42:38 83° E 22:48:10 10° NNE
Cosmos 1400 Rocket 4.2 22:44:16 25° ENE 22:44:16 25° ENE 22:47:05 10° NE
Terra 1.9 22:44:32 44° SE 22:45:46 60° ENE 22:50:29 10° N
Cosmos 1339 Rocket 4.4 22:40:38 10° N 22:46:50 86° W 22:50:00 32° S
USA 245 4.5 22:46:35 27° SW 22:47:59 38° W 22:52:05 10° NNW
Cosmos 1536 4.4 22:49:24 22° ENE 22:49:24 22° ENE 22:51:41 10° NE
NOSS 3-1 (C) 4.1 22:41:19 10° NNW 22:48:48 70° NE 22:53:00 32° SE
ISS -0.6 22:48:58 10° WNW 22:51:30 20° N 22:54:01 10° NE
Cosmos 1025 Rocket 4.0 22:47:48 10° N 22:51:48 33° ENE 22:52:00 32° E
DMSP B5D2-2 4.1 22:46:52 10° NNE 22:52:01 57° E 22:53:13 46° SSE
USA 234 3.7 22:52:03 10° ENE 22:58:01 37° SE 22:58:06 37° SE
Cosmos 1821 Rocket 4.3 22:57:21 40° SE 22:58:57 48° E 23:04:52 10° NNE
Abrixas 3.8 22:56:13 10° W 22:58:22 38° WNW 22:58:22 38° WNW
CZ-4B R/B 4.4 22:59:48 10° N 23:04:27 44° WNW 23:08:19 14° SW
Cosmos 1300 Rocket 3.7 23:04:46 49° SSW 23:05:53 73° W 23:10:20 10° N
Cosmos 1934 Rocket 4.3 23:05:07 41° ESE 23:06:12 45° E 23:11:55 10° NNE
Spot 4 3.8 23:06:34 59° SE 23:07:23 74° ENE 23:12:15 10° N
Cosmos 1486 Rocket 4.0 23:02:42 10° NNW 23:08:03 80° WSW 23:09:19 53° S
Cosmos 1354 Rocket 4.2 23:04:18 10° NNW 23:09:30 57° ENE 23:10:29 49° ESE
Okean 1 3.9 23:06:07 10° NNW 23:10:05 51° W 23:10:39 47° WSW
Cosmos 2082 Rocket 3.7 23:05:24 10° NW 23:10:06 27° WSW 23:12:49 19° SW
Cosmos 2285 Rocket 4.2 23:12:34 46° SE 23:13:40 51° ESE 23:19:50 10° NNE
Cosmos 1812 3.9 23:11:04 10° NNW 23:14:37 35° W 23:15:11 33° WSW
Okean 1 Rocket 3.3 23:13:53 53° SW 23:14:47 68° W 23:19:15 10° N
Cosmos 1602 4.0 23:16:36 61° NE 23:16:36 61° NE 23:19:58 10° NNE
Cosmos 2123 Rocket 4.3 23:10:33 10° N 23:16:36 49° ENE 23:17:58 42° ESE
Cosmos 1356 4.4 23:20:42 45° NNE 23:20:42 45° NNE 23:23:16 10° N
Lacrosse 5 1.9 23:15:44 10° SW 23:20:50 81° NW 23:25:57 10° NE
Genesis I 3.6 23:21:07 61° W 23:21:30 65° NW 23:25:30 10° NNE
H-2A R/B 2.5 23:20:50 41° SSW 23:22:21 55° W 23:27:33 10° NNW
Meteor 2-4 Rocket 3.7 23:20:06 10° N 23:25:33 63° ENE 23:26:19 57° ESE
Cosmos 1302 Rocket 4.4 23:32:20 37° SW 23:34:19 62° WNW 23:39:35 10° NNE
Okean 1-7 Rocket 4.4 23:30:14 10° NNW 23:34:28 42° W 23:34:56 41° WSW
Cosmos 1544 Rocket 4.2 23:36:48 44° NE 23:36:48 44° NE 23:40:07 10° NNE
SL-8 R/B 3.9 23:34:15 10° WNW 23:39:04 66° NNE 23:39:35 61° ENE
Meteor 2-15 Rocket 4.4 23:32:59 10° N 23:39:05 68° E 23:40:05 59° SE
ASTEX 1 4.0 23:38:35 10° N 23:43:24 53° W 23:44:25 45° WSW
Meteor 2-14 Rocket 4.3 23:42:33 61° S 23:43:43 85° E 23:49:54 10° N
Cosmos 1633 3.7 23:44:52 43° N 23:44:52 43° N 23:47:29 10° N
Meteor 2-15 4.3 23:38:59 10° N 23:45:09 88° E 23:46:10 64° SSE
Iridium 4 Rocket 3.8 23:42:26 10° N 23:48:23 78° W 23:49:23 62° SSW
Cosmos 1315 Rocket 3.7 23:51:14 45° N 23:51:14 45° N 23:54:03 10° N
Lacrosse 5 rocket 3.1 23:50:33 10° W 23:53:56 29° NNW 23:57:13 10° NNE
